Temperature
12 12 12 11 11 11 11 11 11 11 11 11 11 11 11 11 10 10 11 11 11 11 11 11 11 11 10 10 10 10 10 10 10 10 10 10 9 9 9 9 9 9 9
11 11 11 11 11 11 11 11 11 11 11 11 10 10 10 10 10 10 10 10 11 11 11 11 10 10 10 10 10 10 9 9 9 9 9 9 9 9 9 9 9 9 9
11 11 11 11 11 11 10 11 10 10 10 10 10 10 10 10 10 10 10 10 10 10 10 10 10 10 10 9 9 9 9 9 9 9 9 9 9 9 9 9 8 9 9
10 10 10 10 10 10 10 10 10 10 10 10 10 10 9 10 10 10 10 10 10 10 10 10 10 10 10 9 9 9 9 9 8 8 8 8 8 8 8 8 8 8 8
10 10 10 10 10 10 10 10 10 9 9 9 9 9 9 9 9 9 9 9 9 9 9 9 9 9 9 9 9 8 9 8 8 8 8 8 8 8 8 8 8 8 8
9 9 9 9 9 9 9 9 9 9 9 9 9 9 9 9 9 8 8 8 9 9 9 9 9 9 9 9 8 8 8 8 8 7 7 7 7 7 7 7 7 7 7
9 9 9 9 9 9 9 9 9 9 8 8 8 8 8 8 8 8 8 8 8 8 8 8 8 8 8 8 8 8 7 7 7 7 7 7 7 7 7 7 7 7 7
8 9 9 8 8 8 9 9 9 8 8 8 8 7 7 7 7 7 8 8 8 8 8 8 8 8 8 7 7 7 7 7 7 7 7 6 6 7 7 7 7 7 7
8 8 8 8 8 8 8 8 8 8 8 8 7 7 7 7 6 7 7 7 7 7 7 7 7 7 7 7 7 7 7 6 6 6 6 6 6 6 6 6 6 6 6
8 8 8 8 8 8 7 8 8 8 8 7 7 7 7 7 6 6 6 6 6 6 6 7 7 7 7 7 7 6 7 6 6 6 6 6 6 6 5 5 5 6 6
7 7 7 7 7 7 7 7 7 7 7 7 7 7 7 7 7 6 5 6 6 6 6 6 6 6 6 6 6 6 6 6 6 6 6 6 6 6 5 5 5 5 5
7 7 7 7 7 7 7 7 7 7 7 6 6 6 6 6 6 6 6 5 5 5 6 6 6 6 6 6 6 6 6 6 6 6 6 6 6 5 5 5 5 5 5
6 6 6 6 6 6 6 6 6 6 6 6 6 6 6 6 6 6 5 5 5 5 5 5 5 5 5 5 5 5 5 5 5 5 5 5 5 5 5 5 5 5 4
6 6 6 6 6 6 6 6 6 6 6 6 5 5 5 5 5 5 5 5 4 4 4 5 5 5 5 5 5 5 5 5 5 5 5 5 5 5 5 4 4 4 4
5 6 6 6 5 5 5 5 5 5 5 5 5 5 5 5 5 5 5 5 4 4 4 4 4 4 4 4 5 4 4 5 5 5 5 5 4 4 4 4 4 4 4
5 5 5 5 5 5 5 4 4 4 4 4 4 4 4 4 4 4 4 4 4 4 3 3 4 4 4 4 4 4 4 4 4 4 4 4 4 4 4 4 3 3 3
5 5 5 5 4 4 4 4 4 4 4 4 4 4 4 4 4 4 4 4 4 4 3 3 3 3 3 3 3 4 4 4 4 4 4 3 3 3 3 3 3 3 3
4 4 4 4 4 4 4 4 3 3 3 3 3 3 3 3 3 3 3 3 3 3 3 3 3 3 3 3 3 3 3 3 3 3 3 3 3 3 3 2 2 2 2
4 4 4 3 3 3 3 3 3 3 3 3 3 3 3 3 3 3 3 3 3 3 3 3 2 2 2 2 2 2 2 2 3 3 3 2 2 2 2 2 2 2 2
3 3 3 3 3 3 3 2 2 2 2 2 2 2 2 2 2 3 2 2 2 2 2 2 2 2 2 2 2 2 2 2 2 2 2 2 2 2 2 2 1 1 1
3 3 3 3 3 2 2 2 2 2 2 2 2 2 2 2 2 2 2 2 2 2 2 1 1 1 1 1 1 1 1 1 1 1 1 1 1 1 1 1 1 1 1
2 2 2 2 2 2 2 2 2 1 1 1 1 1 2 2 2 2 2 2 2 1 1 1 1 0 0 1 1 0 0 0 0 1 1 1 1 1 1 1 1 1 1
2 2 2 2 1 1 1 1 1 1 1 1 1 1 1 1 1 1 1 1 1 1 1 1 1 0 0 0 0 0 -0 -0 -0 0 0 0 0 1 1 1 1 0 0
1 1 1 1 1 1 1 0 0 0 0 0 0 0 0 0 1 1 1 0 0 1 1 0 0 0 0 0 0 0 -0 -0 -0 -0 -0 -0 0 0 0 0 0 0 0
0 0 0 0 0 0 -0 -0 -0 -0 -1 -1 -0 -0 -0 -0 -0 -0 -0 -0 -0 -0 -0 -0 -0 -0 -0 -0 -0 -0 -1 -1 -1 -1 -1 -1 -0 -0 0 0 0 -0 -0
-1 -1 -1 -0 -0 -1 -1 -1 -1 -1 -1 -1 -1 -1 -1 -1 -1 -1 -1 -1 -1 -1 -1 -1 -1 -1 -1 -1 -1 -1 -1 -1 -1 -1 -1 -1 -1 -1 -1 -0 -0 -0 -0
Wind_Speed
2 1 2 1 2 2 2 2 2 2 3 3 3 3 2 2 1 2 3 4 3 3 2 1 1 1 2 3 4 4 4 3 3 3 4 4 5 5 5 5 5 5 4
1 1 2 1 1 2 2 2 2 2 2 2 2 2 2 2 1 1 2 3 3 3 2 1 1 1 2 2 3 3 3 3 3 3 3 4 4 5 5 5 5 5 5
2 2 2 1 1 2 2 2 2 1 2 2 2 2 2 2 2 2 1 1 1 2 2 1 1 1 2 2 2 2 2 2 3 3 3 3 4 4 4 5 5 5 5
3 2 2 2 1 2 2 2 2 2 2 2 1 1 1 1 1 1 1 1 0 0 1 2 1 1 1 2 1 1 2 1 2 3 3 3 4 4 4 5 5 5 5
4 3 2 2 2 2 2 2 2 2 2 2 1 1 1 1 1 1 1 1 1 1 0 2 2 2 1 1 1 1 1 2 2 3 3 4 4 4 4 4 5 5 6
3 2 2 2 3 3 2 3 3 2 2 2 2 1 1 0 1 1 1 1 1 0 0 0 1 1 1 2 1 0 1 1 1 2 3 4 4 4 4 5 5 6 6
4 3 2 2 2 3 4 4 3 4 2 2 1 1 1 1 0 1 1 0 0 0 0 0 0 1 0 1 1 1 2 1 2 2 4 5 5 5 5 5 5 6 7
4 3 3 3 2 2 3 4 4 2 2 2 2 2 1 1 1 0 0 0 1 0 0 1 1 1 1 1 0 1 2 2 2 3 4 5 5 5 5 6 6 6 7
5 4 4 3 3 2 3 4 5 3 3 2 2 2 2 2 1 1 1 1 1 1 1 1 1 2 2 2 2 1 3 4 4 4 4 5 6 6 6 6 6 7 7
5 4 4 4 4 3 4 5 4 4 5 3 2 2 2 1 2 1 1 2 2 2 2 2 2 2 2 2 2 2 3 4 5 5 5 5 6 6 6 7 7 7 7
4 4 4 4 4 4 4 5 5 5 4 4 3 2 2 1 2 3 3 3 2 2 2 3 2 2 3 3 3 3 3 4 5 5 5 5 6 7 7 7 7 7 7
4 4 5 4 4 4 4 5 5 6 5 5 4 3 3 3 3 2 3 3 3 2 3 3 3 2 3 3 4 3 4 4 4 4 5 5 6 6 7 7 7 7 8
4 5 5 5 4 4 4 4 5 5 5 5 5 4 3 3 3 2 2 2 3 3 3 3 3 3 3 4 4 4 5 4 4 4 4 5 5 6 6 7 8 8 8
5 5 5 5 4 4 4 4 4 5 5 5 5 5 4 3 3 3 3 2 3 3 4 4 3 4 3 4 4 5 5 5 5 5 5 5 5 6 6 7 8 8 8
4 5 5 4 4 4 4 4 4 5 5 5 5 5 4 3 3 3 3 4 3 4 4 3 3 3 3 4 4 5 6 6 6 6 6 5 6 6 7 7 7 8 8
5 5 5 5 5 5 5 4 4 4 5 5 4 5 4 3 3 2 4 4 4 4 4 3 3 3 3 4 5 5 6 6 7 6 6 6 6 6 7 7 7 7 8
6 5 6 5 5 5 5 5 4 5 5 5 4 5 5 4 3 3 3 3 4 4 4 4 3 3 4 4 4 4 5 5 5 6 6 7 7 7 7 7 7 7 8
5 5 5 5 5 5 5 5 5 5 5 5 5 5 5 4 4 3 3 4 4 4 4 5 4 3 4 4 4 4 4 5 5 6 7 7 7 7 7 7 7 7 8
5 5 5 5 5 5 5 5 5 5 5 5 5 5 5 5 5 4 4 4 3 3 4 4 4 3 3 3 4 4 4 4 5 5 6 7 7 7 7 7 7 7 8
4 5 5 5 5 5 4 4 4 5 5 4 4 5 5 6 6 5 4 5 4 3 3 3 4 3 3 3 3 3 4 4 4 4 5 6 7 8 8 8 8 8 8
4 4 4 4 4 4 4 4 4 4 4 4 3 4 4 5 5 5 4 4 4 3 3 3 4 3 3 3 3 3 4 4 4 3 4 5 5 5 6 7 8 8 8
3 4 4 4 4 4 5 6 5 4 4 4 4 3 3 4 5 5 6 5 5 5 5 4 4 5 5 4 4 3 3 4 4 3 4 5 5 5 5 6 7 8 8
3 3 4 4 4 4 5 6 5 4 4 4 4 4 3 3 4 4 4 4 4 5 5 5 6 6 6 5 4 4 4 5 5 4 4 5 5 6 5 6 7 8 8
3 3 4 4 4 4 5 5 5 4 3 4 4 4 4 4 3 3 3 3 3 4 4 4 5 6 6 5 5 5 5 5 5 3 3 4 5 5 5 6 6 6 7
3 3 3 4 4 4 5 6 4 3 3 4 4 4 4 4 4 4 3 3 3 3 2 3 4 5 5 5 4 3 3 3 4 3 2 3 4 5 5 4 5 5 7
3 3 3 4 4 4 5 6 5 3 3 3 3 3 4 4 4 4 4 4 4 4 3 3 3 4 4 3 3 4 4 4 3 3 1 2 3 3 3 3 4 5 5
Wind_Direction
164 158 150 165 153 146 148 145 143 137 138 137 140 144 144 146 143 130 108 87 102 102 84 88 108 122 113 105 93 80 69 55 42 34 35 35 27 19 12 10 9 5 1
169 173 158 152 162 164 162 162 156 153 145 135 143 147 150 146 147 134 129 108 88 93 88 51 50 126 124 117 100 84 71 53 40 36 32 19 13 9 7 3 0 358 355
190 179 171 157 168 173 167 161 145 144 136 139 150 140 135 138 144 129 139 144 121 89 79 51 80 85 103 100 102 89 72 52 30 15 16 11 360 351 346 348 344 344 345
197 184 180 162 150 160 167 167 157 147 140 140 138 116 106 102 115 113 114 129 87 32 92 72 59 85 107 94 87 84 64 37 25 19 13 357 345 336 333 335 335 334 333
197 187 184 168 163 154 170 173 164 156 158 137 111 90 78 86 71 100 96 101 87 20 27 77 72 52 58 73 76 67 44 32 28 10 1 353 344 337 333 326 327 329 328
195 183 185 181 172 171 165 172 161 148 155 133 109 77 46 71 50 87 77 81 67 41 1 19 103 66 50 56 44 3 18 16 16 356 344 338 332 331 330 322 317 320 321
198 183 179 188 192 189 177 170 155 155 151 138 123 81 13 57 75 84 81 9 308 336 5 18 324 278 242 119 30 358 339 331 333 325 318 320 319 312 311 314 315 316 315
203 200 195 191 197 200 180 170 150 160 170 174 179 175 204 223 179 278 232 264 291 272 314 359 332 298 273 246 334 334 321 318 314 315 317 319 318 315 312 312 315 317 317
206 205 205 197 193 193 190 185 176 170 175 195 192 191 208 225 274 217 262 252 269 275 269 268 290 304 286 273 253 261 307 309 306 308 311 311 309 311 315 316 316 316 313
214 208 207 206 200 198 199 193 191 188 180 191 202 230 248 238 218 224 237 251 270 270 269 262 258 273 290 276 271 279 293 299 302 304 302 303 304 303 306 311 314 315 319
219 220 212 211 203 203 205 199 194 192 191 197 205 215 225 229 227 229 241 248 264 263 268 268 260 261 273 277 271 283 293 292 296 301 301 298 302 304 305 307 310 313 318
220 222 222 214 207 209 207 203 192 193 197 202 208 213 217 214 217 230 240 241 258 265 267 265 268 267 268 270 277 284 272 280 288 294 301 304 306 308 308 309 310 311 314
226 219 218 216 210 211 210 204 192 197 203 204 208 215 225 236 215 223 227 247 269 273 259 256 259 261 263 266 272 285 260 261 270 280 289 295 300 304 307 308 308 309 311
227 220 214 214 208 203 205 207 199 203 207 209 211 213 218 225 226 217 219 229 256 269 258 259 256 254 261 266 278 285 273 261 260 269 274 278 286 292 297 301 302 303 305
228 213 206 200 196 195 202 204 209 205 207 210 212 213 216 221 230 230 221 222 233 251 256 254 258 262 270 268 276 274 278 275 264 260 265 268 274 285 289 294 299 299 300
225 212 198 194 193 193 196 197 203 205 204 209 211 214 217 221 223 235 230 232 240 242 254 258 261 266 270 271 276 276 276 277 261 258 261 265 271 280 286 290 295 296 297
213 211 201 192 195 195 193 196 202 202 208 208 209 212 218 219 220 224 234 238 245 242 250 265 264 262 269 277 279 279 278 274 270 264 263 266 271 276 280 284 289 293 297
211 206 198 194 197 198 199 201 200 206 211 212 211 212 217 219 221 226 229 239 244 246 242 251 262 265 272 276 280 281 281 277 280 272 261 260 266 270 273 277 282 286 291
204 201 196 195 199 200 202 208 205 206 211 214 214 216 219 219 224 226 231 237 250 251 244 240 256 266 272 280 287 291 290 282 284 279 261 261 265 266 268 269 275 281 288
201 203 198 197 199 195 199 205 204 206 210 213 218 223 225 223 224 228 232 236 243 246 239 238 249 260 272 284 285 294 295 292 288 288 277 271 264 260 260 265 271 277 283
207 205 194 192 196 196 199 199 203 208 212 218 225 229 232 231 236 238 237 234 234 242 240 238 244 258 265 281 281 290 289 292 291 289 295 276 264 262 264 262 264 275 279
213 207 199 196 199 202 196 199 204 209 215 220 226 234 237 229 228 234 239 240 238 233 238 241 245 250 259 268 276 278 282 288 292 294 296 290 277 270 266 267 272 275 276
215 211 206 204 207 204 197 196 195 204 215 224 229 233 240 240 235 237 231 233 246 246 239 242 249 249 255 258 260 268 271 280 286 296 294 283 285 279 273 270 270 266 271
223 219 215 209 211 201 194 195 194 204 211 224 230 231 234 235 236 238 240 245 255 259 255 251 252 260 261 262 257 259 266 279 289 284 288 282 292 293 289 271 266 265 273
235 229 226 212 211 205 196 195 199 202 210 224 231 232 232 231 226 229 233 240 253 269 275 262 268 273 276 268 268 261 260 266 285 288 289 287 300 305 292 276 269 272 277
239 233 231 219 215 216 208 202 203 205 210 219 222 224 224 228 228 235 239 240 251 267 274 273 272 270 269 260 251 248 247 252 275 277 280 289 297 314 296 286 291 289 285
Height
1526 1526 1526 1527 1527 1528 1529 1530 1531 1531 1532 1532 1533 1533 1533 1534 1534 1534 1534 1534 1534 1535 1534 1534 1533 1533 1532 1532 1531 1531 1530 1530 1529 1528 1527 1526 1525 1524 1523 1523 1522 1521 1520
1524 1524 1524 1525 1525 1526 1527 1528 1529 1529 1530 1530 1531 1531 1532 1532 1533 1533 1533 1533 1533 1533 1533 1533 1532 1531 1531 1530 1530 1530 1529 1529 1528 1527 1526 1525 1524 1523 1522 1521 1520 1519 1519
1522 1522 1522 1522 1523 1524 1525 1526 1527 1528 1528 1529 1529 1530 1530 1530 1530 1531 1531 1531 1532 1532 1531 1531 1531 1530 1529 1529 1528 1528 1528 1527 1527 1526 1524 1523 1522 1521 1520 1519 1518 1518 1517
1519 1519 1520 1520 1520 1521 1522 1523 1524 1525 1526 1527 1527 1528 1528 1528 1528 1529 1529 1529 1530 1530 1530 1529 1529 1529 1528 1527 1527 1527 1526 1525 1525 1524 1523 1521 1520 1519 1518 1517 1517 1516 1515
1516 1517 1517 1517 1518 1519 1520 1521 1522 1523 1524 1524 1525 1526 1526 1526 1526 1527 1527 1527 1528 1528 1528 1527 1527 1527 1526 1526 1525 1525 1524 1524 1523 1522 1521 1520 1518 1516 1516 1515 1515 1514 1513
1514 1514 1515 1515 1515 1516 1517 1518 1519 1520 1521 1522 1523 1524 1524 1524 1525 1524 1525 1525 1525 1526 1525 1525 1525 1524 1524 1523 1523 1523 1522 1522 1521 1520 1519 1518 1517 1515 1514 1514 1513 1512 1511
1511 1511 1512 1513 1513 1513 1513 1515 1515 1517 1519 1520 1521 1521 1522 1523 1523 1523 1523 1523 1523 1523 1523 1523 1523 1522 1522 1521 1521 1520 1520 1519 1519 1518 1517 1516 1515 1514 1513 1512 1511 1510 1508
1508 1508 1509 1509 1510 1510 1510 1511 1512 1513 1515 1517 1518 1519 1520 1522 1520 1521 1520 1520 1520 1520 1520 1520 1520 1520 1520 1519 1518 1518 1517 1517 1516 1515 1515 1514 1513 1511 1510 1509 1508 1507 1506
1504 1505 1506 1506 1507 1507 1508 1508 1509 1510 1511 1514 1516 1517 1518 1517 1517 1518 1517 1518 1518 1518 1517 1517 1517 1517 1517 1516 1515 1515 1514 1514 1513 1513 1512 1511 1510 1509 1508 1507 1505 1504 1503
1501 1502 1502 1503 1504 1504 1505 1505 1506 1508 1509 1510 1512 1513 1515 1514 1515 1514 1515 1515 1515 1515 1514 1514 1514 1513 1513 1513 1512 1512 1511 1510 1510 1509 1509 1508 1507 1506 1505 1504 1503 1501 1500
1497 1498 1499 1500 1500 1501 1501 1502 1503 1505 1506 1507 1508 1509 1510 1511 1512 1512 1511 1511 1512 1512 1512 1512 1511 1510 1510 1509 1509 1508 1508 1507 1507 1506 1505 1505 1504 1503 1502 1501 1500 1498 1497
1494 1494 1495 1496 1496 1497 1498 1499 1499 1501 1502 1504 1505 1506 1507 1507 1508 1508 1508 1508 1508 1508 1508 1508 1508 1507 1507 1506 1505 1505 1504 1504 1503 1502 1502 1501 1500 1499 1498 1497 1496 1494 1493
1489 1490 1491 1492 1493 1494 1495 1495 1496 1497 1499 1500 1501 1502 1503 1504 1505 1505 1505 1505 1504 1504 1504 1504 1504 1504 1503 1503 1502 1501 1500 1500 1499 1499 1498 1497 1496 1495 1494 1493 1492 1491 1489
1486 1487 1487 1488 1489 1490 1491 1492 1492 1494 1495 1496 1497 1498 1499 1500 1501 1501 1502 1502 1501 1501 1501 1501 1501 1500 1500 1499 1498 1498 1497 1496 1495 1495 1494 1493 1492 1491 1490 1489 1488 1487 1486
1482 1483 1483 1483 1485 1486 1488 1488 1488 1490 1491 1492 1493 1494 1495 1496 1496 1497 1498 1499 1499 1498 1497 1497 1497 1497 1496 1496 1495 1494 1493 1492 1492 1491 1490 1489 1488 1488 1486 1485 1484 1483 1482
1477 1478 1479 1480 1482 1483 1484 1484 1485 1486 1487 1488 1489 1490 1491 1492 1492 1493 1494 1495 1495 1495 1494 1493 1493 1493 1492 1492 1491 1490 1489 1488 1488 1487 1486 1485 1484 1483 1482 1481 1480 1479 1478
1473 1474 1475 1477 1478 1479 1480 1480 1481 1482 1483 1485 1485 1486 1487 1488 1488 1489 1489 1490 1491 1491 1490 1489 1489 1489 1488 1488 1487 1486 1485 1484 1483 1482 1482 1481 1480 1479 1478 1477 1476 1475 1474
1469 1470 1471 1472 1474 1475 1476 1476 1477 1479 1480 1480 1481 1482 1483 1484 1485 1485 1485 1486 1486 1487 1486 1485 1485 1484 1484 1484 1483 1482 1481 1480 1479 1478 1477 1476 1476 1475 1474 1473 1472 1471 1470
1465 1466 1467 1469 1470 1471 1472 1473 1473 1474 1475 1476 1477 1478 1479 1480 1480 1481 1481 1481 1482 1482 1482 1481 1480 1480 1480 1479 1479 1478 1477 1476 1475 1474 1473 1472 1471 1471 1470 1469 1468 1467 1466
1461 1462 1463 1465 1466 1467 1468 1469 1470 1470 1471 1472 1473 1474 1475 1476 1476 1477 1477 1477 1477 1477 1477 1477 1477 1476 1476 1475 1475 1473 1473 1472 1471 1470 1469 1468 1467 1466 1466 1465 1464 1463 1461
1457 1458 1460 1461 1462 1463 1464 1465 1465 1466 1467 1468 1469 1470 1471 1472 1472 1473 1473 1473 1473 1473 1473 1473 1473 1472 1472 1471 1471 1470 1469 1468 1467 1466 1465 1464 1464 1462 1461 1460 1459 1458 1457
1453 1454 1456 1457 1458 1459 1460 1461 1462 1463 1463 1464 1465 1466 1467 1467 1468 1468 1469 1469 1469 1469 1469 1469 1468 1468 1468 1468 1467 1467 1466 1465 1463 1463 1462 1461 1460 1458 1457 1456 1455 1454 1453
1450 1451 1452 1453 1454 1455 1456 1457 1458 1459 1459 1460 1461 1462 1462 1463 1464 1464 1464 1464 1464 1465 1465 1465 1465 1464 1464 1464 1464 1463 1463 1462 1460 1459 1459 1457 1456 1454 1453 1452 1451 1450 1449
1446 1447 1448 1449 1450 1451 1452 1453 1454 1455 1456 1457 1457 1458 1458 1459 1460 1460 1460 1460 1460 1460 1461 1461 1461 1461 1461 1461 1461 1460 1459 1458 1457 1457 1456 1454 1452 1450 1449 1448 1447 1446 1445
1443 1444 1444 1445 1446 1447 1448 1450 1451 1451 1452 1453 1453 1454 1455 1455 1456 1456 1457 1456 1456 1457 1457 1457 1457 1457 1457 1457 1457 1457 1456 1455 1453 1453 1452 1451 1449 1447 1445 1444 1444 1442 1441
1441 1441 1441 1442 1442 1443 1445 1446 1447 1448 1448 1449 1450 1450 1451 1452 1452 1453 1453 1453 1452 1452 1453 1453 1453 1454 1454 1453 1453 1453 1452 1451 1450 1449 1449 1448 1446 1445 1442 1441 1440 1439 1438